Home > Weather > Battambang > Past weeks

Flag for Cambodia Past Weather in Battambang, Cambodia — Yesterday and Last 2 Weeks

Now
79 °F

Partly cloudy.


Feels Like: 83 °F
Forecast: 76 / 90 °F
Wind: 3 mph from Southeast

Location: Siemreap

Current Time: Jul 29, 2016 at 10:58:43 PM

Latest Report: Jul 29, 2016 at 10:30 PM


Visibility: 6 mi

Pressure: 29.80 "Hg

Humidity: 100%

Dew Point: 79 °F

Location of BattambangLocation

Past Weather in Battambang — Graph

°F

Battambang Temperature Yesterday

Maximum temperature yesterday: 88 °F (at 12:30 PM)
Minimum temperature yesterday: 77 °F (at 2:30 AM)
Average temperature yesterday: 82 °F

High & Low Weather Summary for the Past Weeks

 TemperatureHumidityPressure
High93 °F (Jul 17, 1:30 PM)100% (Jul 14, 9:00 PM)29.86 "Hg (Jul 14, 9:00 PM)
Low73 °F (Jul 25, 8:30 PM)52% (Jul 19, 4:00 PM)29.62 "Hg (Jul 18, 2:00 PM)
Average83 °F84%29.74 "Hg
* Reported Jul 14 9:00 PM — Jul 29 9:00 PM, Battambang, Weather by CustomWeather, © 2016

Note: Actual official high and low records may vary slightly from our data, if they occured in-between our weather recording intervals... More about our weather records

Advertising

Battambang Weather History for the Previous 24 Hours

Scroll right to see more
 ConditionsComfort  
Time TempWeatherWind HumidityBarometerVisibility
9:00 PM
Fri, Jul 29
79 °FPartly cloudy.No wind100%29.77 "Hg6 mi
8:30 PM79 °FPartly cloudy.No wind100%29.77 "Hg6 mi
8:00 PM79 °FPartly cloudy.2 mph100%29.74 "Hg6 mi
7:30 PM79 °FPartly cloudy.5 mph100%29.71 "Hg6 mi
7:00 PM79 °FPartly cloudy.5 mph100%29.71 "Hg6 mi
6:30 PM79 °FBroken clouds.5 mph100%29.71 "Hg6 mi
6:00 PM79 °FBroken clouds.No wind89%29.71 "Hg6 mi
5:30 PM79 °FBroken clouds.No wind89%29.68 "Hg6 mi
5:00 PM79 °FBroken clouds.5 mph89%29.68 "Hg6 mi
4:30 PM79 °FBroken clouds.5 mph89%29.68 "Hg6 mi
4:00 PM79 °FBroken clouds.7 mph89%29.68 "Hg6 mi
3:30 PM77 °FBroken clouds.6 mph94%29.71 "Hg6 mi
3:00 PM77 °FBroken clouds.6 mph94%29.71 "Hg6 mi
2:30 PM75 °FThunderstorms. Broken clouds.10 mph100%29.71 "Hg4 mi
2:00 PM82 °FThunderstorms. Scattered clouds.22 mph79%29.71 "Hg2 mi
1:30 PM88 °FScattered clouds.7 mph66%29.68 "HgN/A
1:00 PM88 °FScattered clouds.8 mph66%29.71 "HgN/A
12:30 PM88 °FScattered clouds.5 mph66%29.74 "HgN/A
12:00 PM86 °FScattered clouds.8 mph70%29.74 "HgN/A
11:30 AM86 °FScattered clouds.5 mph70%29.74 "HgN/A
11:00 AM86 °FScattered clouds.5 mph75%29.74 "HgN/A
10:30 AM86 °FScattered clouds.5 mph75%29.74 "HgN/A
10:00 AM84 °FScattered clouds.5 mph79%29.77 "HgN/A
9:30 AM84 °FScattered clouds.5 mph79%29.77 "HgN/A
9:00 AM84 °FScattered clouds.5 mph79%29.74 "HgN/A
8:30 AM81 °FPassing clouds.5 mph94%29.74 "Hg6 mi
8:00 AM81 °FPassing clouds.5 mph94%29.74 "Hg6 mi
7:30 AM81 °FPassing clouds.5 mph94%29.74 "Hg6 mi
7:00 AM81 °FPassing clouds.No wind100%29.71 "Hg6 mi
2:30 AM79 °FPassing clouds.5 mph100%29.68 "Hg5 mi
2:00 AM79 °FPassing clouds.6 mph100%29.68 "Hg5 mi
1:30 AM79 °FPassing clouds.5 mph100%29.68 "Hg5 mi
1:00 AM79 °FPassing clouds.5 mph100%29.71 "Hg5 mi
12:30 AM81 °FPassing clouds.5 mph100%29.71 "Hg5 mi
12:00 AM81 °FPassing clouds.5 mph100%29.74 "Hg5 mi
11:30 PM
Thu, Jul 28
81 °FLight rain. Passing clouds.3 mph100%29.74 "Hg4 mi
11:00 PM81 °FLight rain. Passing clouds.2 mph100%29.74 "Hg4 mi
10:30 PM81 °FLight rain. Passing clouds.2 mph100%29.74 "Hg4 mi
10:00 PM81 °FLight rain. Passing clouds.2 mph100%29.74 "Hg4 mi
Weather by CustomWeather, © 2016

See weather overviewHow to use our weather pages